Location: Unspecified
(0.0000°N, 0.0000°E)
Time: 07:24:46
(UTC+02:00)

Daily predictions for brighter satellites

Satellite Brightness Start Highest point End
(mag) Time Altitude Azimuth Time Altitude Azimuth Time Altitude Azimuth
Ariane H10-3 3.4 20:00:45 10° WSW 20:04:23 65° S 20:24:42 10° E
Lacrosse 5 2.9 20:15:52 10° NW 20:20:42 48° WSW 20:25:35 10° SSE
deb Centaur AC-2 4.2 20:21:47 10° WSW 20:26:19 89° SSE 20:31:38 10° ENE
SL-16 R/B 2.9 20:20:59 10° SSW 20:26:35 62° WNW 20:32:09 10° N
Cosmos 1892 3.9 20:31:12 10° NE 20:34:13 22° E 20:37:16 10° SE
ARIANE 5 R/B 3.8 20:32:41 10° W 20:36:50 75° N 21:10:42 10° E
ARIANE 5 R/B 3.8 20:32:40 10° W 20:36:50 75° N 21:10:42 10° E
ARIANE 5 R/B 3.8 20:32:41 10° W 20:36:50 75° N 21:10:41 10° E
ARIANE 5 R/B 3.8 20:32:40 10° W 20:36:50 75° N 21:10:41 10° E
Cosmos 2227 Rocket 2.7 20:31:35 10° NNW 20:37:08 64° WSW 20:42:43 10° S
CZ-4 R/B 4.1 20:34:47 10° SSW 20:37:44 20° WSW 20:40:39 10° NW
Cosmos 1992 Rocket 4.0 20:36:07 10° SSW 20:41:21 89° ESE 20:46:35 10° NNE
Cosmos 2082 4.2 20:39:33 10° NNW 20:45:07 65° WSW 20:50:44 10° S
Cosmos 1869 3.2 20:41:26 10° S 20:45:21 69° E 20:49:15 10° N
ARIANE 44P R/B 3.1 20:47:35 10° WSW 20:49:37 23° S 20:50:46 18° SE
MAQSAT/ARIANE V 1.3 20:46:36 10° WSW 20:49:40 43° S 20:50:23 28° SE
Cosmos 1869 Rocket 4.3 20:50:01 10° NNE 20:53:56 32° E 20:56:36 17° SE
Meteor 2-3 Rocket 3.7 20:49:52 10° N 20:55:36 66° E 21:01:22 10° SSE
SJ-6B 3.5 20:54:49 22° SE 20:56:36 32° ENE 21:00:06 10° NNE
Ariane H10 3.1 20:44:51 10° W 20:57:33 80° S 20:59:33 26° ESE
Gbstr 26 Del rocket 4.0 20:54:13 10° SSW 21:00:07 64° ESE 21:07:20 10° NE
FENGYUN 3A 4.0 21:01:06 15° SE 21:05:17 43° ENE 21:10:20 10° N
ARIANE 5 DEB (SYLDA) 3.4 21:04:06 10° WSW 21:05:38 20° SSW 21:05:38 20° SSW
Cosmos 2242 Rocket 3.6 21:03:49 10° S 21:08:24 90° ENE 21:12:54 10° N
Intercosmos 25 Rocket 2.9 21:13:58 10° S 21:17:49 85° W 21:20:56 10° N
Helios 1B rocket 2.6 21:14:21 10° NNE 21:17:59 47° E 21:17:59 47° E
Cosmos 1400 Rocket 3.4 21:15:06 10° NNW 21:19:01 57° W 21:23:01 10° S
Ariane H10 2.7 21:17:10 10° WSW 21:19:44 79° S 21:20:52 45° E
Cosmos 1933 3.2 21:27:43 37° S 21:29:17 87° E 21:33:19 10° N
Hubble Space Telescope 0.8 21:26:21 10° WNW 21:30:29 70° SSW 21:30:41 68° S
GPS 2-14 Rocket1 4.4 21:27:39 10° WSW 21:31:06 24° SSW 21:31:25 24° SSW
Resurs 01 Rocket 2.8 21:34:26 29° NNE 21:34:26 29° NNE 21:36:56 10° N
Cosmos 1315 Rocket 3.0 21:34:43 10° NNW 21:38:39 68° W 21:38:39 68° W
NOSS 3-1 (C) 3.1 21:35:03 10° SSW 21:40:38 84° WNW 21:46:15 10° NNE
Cosmos 2360 Rocket 4.2 21:41:39 10° SW 21:46:22 28° WNW 21:51:05 10° NNW
ATLAS CENTAUR R/B 4.1 21:42:55 10° NNW 21:49:07 63° ENE 21:56:00 35° SE
ARIANE 5 R/B 2.4 21:40:31 10° W 21:49:01 67° NW 21:49:01 67° NW
COSMOS 2428 2.8 21:45:41 10° SSW 21:51:20 73° WNW 21:56:59 10° N
Meteor 2-20 Rocket 4.3 21:49:07 10° N 21:54:52 73° NE 21:54:52 73° NE
Cosmos 2026 Rocket 4.0 21:49:22 10° N 21:54:34 62° NE 21:54:34 62° NE
ALOS 3.7 21:53:20 20° SSW 21:55:54 35° WSW 22:00:08 10° NW
SL-8 R/B 4.3 21:51:27 10° NW 21:55:09 54° NW 21:55:09 54° NW
NOSS 3-1 (A) 3.5 21:52:05 10° SSW 21:56:26 55° SSW 21:56:26 55° SSW
Maqsat-B 4.2 21:54:02 10° WNW 21:58:00 46° NNE 21:59:00 43° NE
BLOCK DM-SL R/B 4.0 21:56:45 10° W 22:16:47 77° N 22:17:02 76° NNE
H-10 deb 4.4 22:16:16 10° WNW 22:18:38 21° WNW 22:18:38 21° WNW
BREEZE M DEB (TANK) 4.2 22:15:31 10° NW 22:28:42 55° NNW 22:28:42 55° NNW
ARIANE 5 R/B 4.5 22:38:42 10° W 22:45:55 32° W 22:45:55 32° W
